{"data":{"norad_id":63985,"epoch":"2026-05-25T03:38:31.836768Z","epoch_age_seconds":52173,"freshness":"FRESH","line1":"1 63985U 25100D   26145.15175737  .00021629  00000+0  72915-3 0  9999","line2":"2 63985  97.3669 221.1785 0008663  16.6219 343.5305 15.30710985 57304","mean_motion":15.30710985,"eccentricity":0.0008663,"inclination_deg":97.3669,"raan_deg":221.1785,"arg_perigee_deg":16.6219,"mean_anomaly_deg":343.5305,"bstar":0.00072915,"rev_number":5730,"period_min":94.073931271879,"perigee_km":467.75404721648,"apogee_km":479.62552230375,"semimajor_km":6851.8267847601,"source":"CELESTRAK","updated_at":"2026-05-25T13:38:04.146320Z"}}